This is the latest recevied weather packets stored in our database for station/object WA4TPR. If no packets are shown the sender has not sent any weather packets the latest 10 day(s).
| Time | Temp. | Humidity | Pressure | Rain* | Wind** | Luminosity | Snow |
|---|---|---|---|---|---|---|---|
| 1777648816 | 28.33° C | 72% | 1017.1 hPa | 0 mm | - | 671 W/m² | - |
| 1777648512 | 27.78° C | 73% | 1016.8 hPa | 0 mm | - | 659 W/m² | - |
| 1777648209 | 27.78° C | 75% | 1016.9 hPa | 0 mm | - | 652 W/m² | - |
| 1777647904 | 27.78° C | 75% | 1017 hPa | 0 mm | - | 652 W/m² | - |
| 1777647601 | 27.22° C | 77% | 1017 hPa | 0 mm | - | 647 W/m² | - |
| 1777647297 | 26.67° C | 78% | 1017 hPa | 0 mm | - | 626 W/m² | - |
| 1777646996 | 26.67° C | 80% | 1017 hPa | 0 mm | - | 531 W/m² | - |
| 1777646691 | 26.67° C | 81% | 1017.1 hPa | 0 mm | - | 611 W/m² | - |
| 1777646387 | 26.11° C | 83% | 1017.1 hPa | 0 mm | - | 587 W/m² | - |
| 1777646083 | 25.56° C | 84% | 1017.1 hPa | 0 mm | - | 188 W/m² | - |
| 1777645780 | 25.56° C | 88% | 1017.1 hPa | 0 mm | - | 586 W/m² | - |
| 1777645478 | 24.44° C | 94% | 1017.1 hPa | 0 mm | - | 549 W/m² | - |
| 1777645173 | 23.33° C | 98% | 1017.4 hPa | 0 mm | - | 268 W/m² | - |
| 1777644869 | 23.33° C | 99% | 1017.4 hPa | 0 mm | - | 294 W/m² | - |
| 1777644567 | 22.78° C | 99% | 1017.2 hPa | 0 mm | - | 531 W/m² | - |
| 1777644263 | 23.33° C | 99% | 1017.1 hPa | 0 mm | - | 399 W/m² | - |
| 1777643960 | 22.78° C | 99% | 1017.2 hPa | 0 mm | - | 483 W/m² | - |
| 1777643657 | 22.78° C | 99% | 1017.2 hPa | 0 mm | - | 453 W/m² | - |
| 1777643354 | 22.78° C | 99% | 1017.3 hPa | 0 mm | - | 433 W/m² | - |
| 1777643050 | 22.78° C | 99% | 1017.3 hPa | 0 mm | - | 389 W/m² | - |
| 1777642747 | 22.22° C | 99% | 1017.1 hPa | 0 mm | - | 323 W/m² | - |
| 1777642444 | 22.22° C | 99% | 1017.3 hPa | 0 mm | - | 358 W/m² | - |
| 1777642140 | 22.22° C | 99% | 1017.2 hPa | 0 mm | - | 338 W/m² | - |
| 1777641836 | 22.22° C | 99% | 1017.2 hPa | 0 mm | - | 330 W/m² | - |
| 1777641532 | 22.22° C | 99% | 1017.1 hPa | 0 mm | - | 333 W/m² | - |
* Rain latest hour (hover to see other rain measurements)
** Current wind speed in m/s (hover to see current wind gust speed)